Johnstown, NE

4:53 AM CST on February 25, 2017 (GMT -0600)
Ainsworth Municipal

Weather History for KANW - March, 2012

Change the Weather History Date:

Tuesday, March 13, 2012

  Actual Average Record
Temperature  
Mean Temperature 58 °F -  
Max Temperature 78 °F 41 °F 78 °F (2012)
Min Temperature 39 °F 22 °F 15 °F (1997)
Degree Days  
Heating Degree Days 6    
Growing Degree Days 8 (Base 50)    
Moisture  
Dew Point 32 °F    
Average Humidity 49    
Maximum Humidity 83    
Minimum Humidity 12    
Precipitation  
Precipitation 0.00 in - - ()
Sea Level Pressure  
Sea Level Pressure 29.83 in    
Wind  
Wind Speed 11 mph (South)    
Max Wind Speed 25 mph    
Max Gust Speed 32 mph    
Visibility 10 miles    
Events      
Averages and records for this station are not official NWS values.
T = Trace of Precipitation, MM = Missing Value Source: NWS Daily Summary

Daily Weather History Graph

Daily Weather History Graph

Search for Another Location

Airport or City:

Trip Planner

Search our weather history database for the weather conditions in past years. The results will help you decide how hot, cold, wet, or windy it might be!

Date:

Astronomy

Mar. 13, 2012 Rise Set
Actual Time 7:54 AM CDT 7:44 PM CDT
Civil Twilight 7:26 AM CDT 8:12 PM CDT
Nautical Twilight 6:53 AM CDT 8:45 PM CDT
Astronomical Twilight 6:20 AM CDT 9:18 PM CDT
Moon 1:26 AM CDT (3/13) 11:00 AM CDT (3/13)
Length of Visible Light 12h 46m
Length of Day
11h 50m
Waning Gibbous, 65% of the Moon is Illuminated
Mar 13
Waning Gibbous
Mar 14
Last Quarter
Mar 22
New
Mar 30
First Quarter
Apr 6
Full

Hourly Weather History & Observations

Time (CDT) Temp. Windchill Dew Point Humidity Pressure Visibility Wind Dir Wind Speed Gust Speed Precip Events Conditions
12:15 AM 42.1 °F 37.1 °F 34.2 °F 74% 29.91 in 10.0 mi SE 8.1 mph - N/A   Clear
12:35 AM 43.0 °F 38.8 °F 35.2 °F 74% 29.91 in 10.0 mi SE 6.9 mph - N/A   Clear
12:55 AM 43.7 °F 39.1 °F 35.8 °F 74% 29.92 in 10.0 mi SE 8.1 mph - N/A   Clear
1:15 AM 43.7 °F 38.1 °F 36.1 °F 75% 29.91 in 10.0 mi SE 10.4 mph - N/A   Clear
1:35 AM 42.8 °F 37.5 °F 35.6 °F 76% 29.91 in 10.0 mi SSE 9.2 mph - N/A   Clear
1:55 AM 42.8 °F 36.6 °F 36.1 °F 77% 29.91 in 10.0 mi SSE 11.5 mph - N/A   Clear
2:15 AM 42.3 °F 37.3 °F 35.8 °F 78% 29.91 in 10.0 mi SSE 8.1 mph - N/A   Clear
2:35 AM 41.5 °F 36.4 °F 35.6 °F 79% 29.91 in 10.0 mi SSE 8.1 mph - N/A   Clear
2:55 AM 43.0 °F 37.7 °F 36.0 °F 76% 29.91 in 10.0 mi SSE 9.2 mph - N/A   Clear
3:15 AM 43.5 °F 37.9 °F 36.3 °F 76% 29.91 in 10.0 mi SSE 10.4 mph - N/A   Clear
3:35 AM 43.7 °F 38.6 °F 36.5 °F 76% 29.91 in 10.0 mi SSE 9.2 mph - N/A   Clear
3:55 AM 44.6 °F 39.2 °F 36.5 °F 73% 29.90 in 10.0 mi SSE 10.4 mph - N/A   Clear
4:15 AM 44.6 °F 38.8 °F 36.3 °F 73% 29.90 in 10.0 mi SSE 11.5 mph - N/A   Clear
4:35 AM 43.7 °F 37.3 °F 36.0 °F 74% 29.89 in 10.0 mi South 12.7 mph - N/A   Clear
4:55 AM 43.5 °F 37.5 °F 35.8 °F 74% 29.89 in 10.0 mi South 11.5 mph - N/A   Clear
5:15 AM 43.0 °F 37.2 °F 35.6 °F 75% 29.88 in 10.0 mi South 10.4 mph - N/A   Clear
5:35 AM 41.5 °F 35.4 °F 35.4 °F 79% 29.88 in 10.0 mi South 10.4 mph - N/A   Clear
5:55 AM 41.0 °F 35.2 °F 35.1 °F 79% 29.88 in 10.0 mi South 9.2 mph - N/A   Clear
6:15 AM 39.4 °F 33.8 °F 34.7 °F 83% 29.88 in 10.0 mi South 8.1 mph - N/A   Clear
6:35 AM 39.2 °F 35.9 °F 34.2 °F 82% 29.88 in 10.0 mi South 4.6 mph - N/A   Clear
6:55 AM 39.9 °F 35.1 °F 34.2 °F 80% 29.88 in 10.0 mi SSW 6.9 mph - N/A   Clear
7:15 AM 41.0 °F 35.2 °F 33.8 °F 76% 29.88 in 10.0 mi South 9.2 mph - N/A   Clear
7:35 AM 41.0 °F 38.0 °F 33.8 °F 76% 29.87 in 10.0 mi SSW 4.6 mph - N/A   Clear
7:55 AM 39.7 °F 35.6 °F 33.6 °F 79% 29.88 in 10.0 mi SSW 5.8 mph - N/A   Clear
8:15 AM 39.2 °F 34.2 °F 33.3 °F 79% 29.88 in 10.0 mi SSW 6.9 mph - N/A   Clear
8:35 AM 40.6 °F 36.0 °F 34.2 °F 78% 29.88 in 10.0 mi SSW 6.9 mph - N/A   Clear
8:55 AM 42.6 °F 39.0 °F 34.7 °F 74% 29.88 in 10.0 mi SSW 5.8 mph - N/A   Clear
9:15 AM 45.1 °F 41.4 °F 34.2 °F 65% 29.88 in 10.0 mi SSW 6.9 mph - N/A   Clear
9:35 AM 48.0 °F - 34.9 °F 60% 29.87 in 10.0 mi South 9.2 mph - N/A   Clear
9:55 AM 50.5 °F - 34.5 °F 54% 29.87 in 10.0 mi South 9.2 mph - N/A   Clear
10:15 AM 54.0 °F - 33.3 °F 46% 29.87 in 10.0 mi South 9.2 mph - N/A   Clear
10:35 AM 57.4 °F - 32.2 °F 39% 29.86 in 10.0 mi South 8.1 mph - N/A   Clear
10:55 AM 60.8 °F - 31.6 °F 33% 29.85 in 10.0 mi SSW 5.8 mph - N/A   Clear
11:15 AM 63.9 °F - 31.3 °F 29% 29.85 in 10.0 mi South 8.1 mph - N/A   Clear
11:35 AM 66.7 °F - 31.1 °F 26% 29.85 in 10.0 mi South 9.2 mph - N/A   Clear
11:55 AM 68.9 °F - 29.1 °F 23% 29.84 in 10.0 mi SSW 10.4 mph - N/A   Clear
12:15 PM 70.7 °F - 28.4 °F 21% 29.83 in 10.0 mi South 11.5 mph - N/A   Clear
12:35 PM 71.8 °F - 25.7 °F 18% 29.82 in 10.0 mi SSW 15.0 mph 19.6 mph N/A   Clear
12:55 PM 72.7 °F - 27.0 °F 18% 29.82 in 10.0 mi South 17.3 mph 23.0 mph N/A   Clear
1:15 PM 72.7 °F - 27.7 °F 19% 29.81 in 10.0 mi South 18.4 mph 23.0 mph N/A   Clear
1:35 PM 72.0 °F - 29.8 °F 21% 29.80 in 10.0 mi South 18.4 mph - N/A   Clear
1:55 PM 72.9 °F - 31.5 °F 22% 29.79 in 10.0 mi South 23.0 mph 26.5 mph N/A   Clear
2:15 PM 74.3 °F - 32.0 °F 21% 29.77 in 10.0 mi South 17.3 mph - N/A   Clear
2:35 PM 76.6 °F - 27.1 °F 16% 29.76 in 10.0 mi South 24.2 mph 27.6 mph N/A   Clear
2:55 PM 77.0 °F - 28.4 °F 17% 29.75 in 10.0 mi South 17.3 mph 26.5 mph N/A   Clear
3:15 PM 77.7 °F - 23.7 °F 14% 29.73 in 10.0 mi South 25.3 mph 32.2 mph N/A   Clear
3:35 PM 77.9 °F - 24.3 °F 14% 29.71 in 10.0 mi South 25.3 mph 29.9 mph N/A   Clear
3:55 PM 77.4 °F - 22.8 °F 13% 29.71 in 10.0 mi South 21.9 mph 28.8 mph N/A   Clear
4:15 PM 76.5 °F - 24.3 °F 14% 29.71 in 10.0 mi South 21.9 mph 31.1 mph N/A   Clear
4:35 PM 78.8 °F - 22.6 °F 12% 29.70 in 10.0 mi South 21.9 mph 28.8 mph N/A   Clear
4:55 PM 78.1 °F - 23.9 °F 13% 29.69 in 10.0 mi South 18.4 mph 25.3 mph N/A   Clear
5:15 PM 77.7 °F - 24.4 °F 14% 29.69 in 10.0 mi South 12.7 mph 23.0 mph N/A   Clear
5:35 PM 75.4 °F - 26.2 °F 16% 29.69 in 10.0 mi South 13.8 mph 23.0 mph N/A   Clear
5:55 PM 73.9 °F - 29.8 °F 20% 29.68 in 10.0 mi South 10.4 mph - N/A   Clear
6:15 PM 75.4 °F - 29.7 °F 19% 29.68 in 10.0 mi South 11.5 mph - N/A   Clear
6:35 PM 73.2 °F - 30.7 °F 21% 29.67 in 10.0 mi South 16.1 mph - N/A   Clear
6:55 PM 70.3 °F - 32.0 °F 24% 29.68 in 10.0 mi South 12.7 mph - N/A   Clear
7:15 PM 68.4 °F - 33.1 °F 27% 29.68 in 10.0 mi South 10.4 mph - N/A   Clear
7:35 PM 66.2 °F - 34.7 °F 31% 29.67 in 10.0 mi South 13.8 mph - N/A   Clear
7:55 PM 64.9 °F - 32.9 °F 30% 29.67 in 10.0 mi South 9.2 mph - N/A   Clear
8:15 PM 59.9 °F - 34.7 °F 39% 29.68 in 10.0 mi South 9.2 mph - N/A   Clear
8:35 PM 57.2 °F - 35.6 °F 44% 29.68 in 10.0 mi South 9.2 mph - N/A   Clear
8:55 PM 57.6 °F - 35.8 °F 44% 29.69 in 10.0 mi South 10.4 mph - N/A   Clear
9:15 PM 54.0 °F - 36.5 °F 52% 29.69 in 10.0 mi South 9.2 mph - N/A   Clear
9:35 PM 52.7 °F - 37.2 °F 56% 29.69 in 10.0 mi South 10.4 mph - N/A   Clear
9:55 PM 52.2 °F - 37.8 °F 58% 29.69 in 10.0 mi South 10.4 mph - N/A   Clear
10:15 PM 52.5 °F - 38.5 °F 59% 29.69 in 10.0 mi South 11.5 mph - N/A   Clear
10:35 PM 52.0 °F - 38.3 °F 60% 29.69 in 10.0 mi South 10.4 mph - N/A   Clear
10:55 PM 50.9 °F - 37.8 °F 61% 29.69 in 10.0 mi South 10.4 mph - N/A   Clear
11:15 PM 53.8 °F - 36.9 °F 53% 29.69 in 10.0 mi South 12.7 mph - N/A   Clear
11:35 PM 54.0 °F - 35.1 °F 49% 29.69 in 10.0 mi South 11.5 mph - N/A   Clear
11:55 PM 52.5 °F - 34.5 °F 50% 29.69 in 10.0 mi South 10.4 mph - N/A   Clear